Regional Weather Roundup
Issued by NWS

Home | Current Version | Previous Version | Graphics & Text | Print | Product List | Glossary On
Versions: 1 2 3 4 5 6 7 8 9 10 11 12 13 14 15 16 17 18 19 20 21 22 23 24 25 26 27 28 29 30 31 32 33 34 35 36 37 38 39 40 41 42 43 44 45 46 47 48 49 50
000
ASUS43 KLSX 160807
RWRMO

WEATHER SUMMARY FOR MISSOURI
NATIONAL WEATHER SERVICE SPRINGFIELD MO
200 AM CST TUE JAN 16 2018

NOTE: "FAIR" INDICATES FEW OR NO CLOUDS BELOW 12,000 FEET WITH NO
       SIGNIFICANT WEATHER AND/OR OBSTRUCTIONS TO VISIBILITY.
       CURRENT SKY AND/OR WEATHER CONDITIONS ARE NOT AVAILABLE FOR
       CHILLICOTHE AND FARMINGTON.

MOZ001>031-035>038-043-044-053-054-160900-
...NORTHERN AND WESTERN MISSOURI...

CITY           SKY/WX    TMP DP  RH WIND       PRES   REMARKS
KANSAS CTY INT CLEAR     -3 -10  72 NW7       30.68R WCI -16
KANSAS C DTWN  CLEAR      1  -9  62 NW10      30.72S WCI -15
LEE`S SUMMIT   CLEAR     -1 -10  65 NW10      30.68S WCI -17
ST JOSEPH        N/A    N/A N/A N/A MISG      30.72S
CHILLICOTHE      N/A     -2 -11  65 NW7       30.68S WCI -15
KIRKSVILLE     CLEAR     -4  -9  79 NW10      30.59S WCI -21

$$
MOZ066>068-077>081-088>096-101>105-160900-
...SOUTHWEST MISSOURI...

CITY           SKY/WX    TMP DP  RH WIND       PRES   REMARKS
SPRINGFIELD    CLOUDY     0  -8  69 NW10      30.62R WCI -16
JOPLIN         CLOUDY     0  -4  83 NW8       30.70S WCI -14

$$
MOZ032>034-039>042-045>050-055>058-069>072-160900-
...CENTRAL MISSOURI...

CITY           SKY/WX    TMP DP  RH WIND       PRES   REMARKS
COLUMBIA       CLEAR      0  -9  65 NW12      30.62R WCI -17
JEFFERSON CITY PTCLDY     2  -8  63 NW12      30.67S WCI -15
ROLLA          PTCLDY     0  -6  76 NW10      30.58S WCI -16
SEDALIA        PTCLDY    -1  -7  75 NW8       30.66S WCI -15
WHITEMAN AFB   CLEAR     -1 -10  65 NW10      30.63R WCI -18
WARRENSBURG    CLEAR      0  -9  65 NW8       30.69F WCI -15
OSAGE BEACH    PTCLDY     1  -7  68 NW13      30.66R WCI -17

$$
MOZ051-052-059>065-160900-
...EAST CENTRAL MISSOURI...

CITY           SKY/WX    TMP DP  RH WIND       PRES   REMARKS
ST LOUIS INTL  PTCLDY     3  -5  69 W9        30.61R WCI -12
SPIRIT OF STL  PTCLDY     3  -6  66 W8        30.63R WCI -10
ST CHARLES     PTCLDY     3  -6  66 NW16      30.62R WCI -16

$$
MOZ072>076-082>087-097>100-106>115-160900-
...SOUTH CENTRAL AND SOUTHEAST MISSOURI...

CITY           SKY/WX    TMP DP  RH WIND       PRES   REMARKS
CAPE GIRARDEAU FAIR      12   1  61 N9        30.61R WCI   0
FARMINGTON     CLOUDY     5  -3  69 W9        30.57S WCI  -9
POPLAR BLUFF   FAIR      14   1  56 NW12      30.61R WCI   0
WEST PLAINS    CLOUDY     5  -4  66 N6        30.58R WCI  -6

$$



USA.gov is the U.S. government's official web portal to all federal, state and local government web resources and services.